Date String (YYYY-MM-DD hh:mm:ss) UTC,Instrument flags,absolute air pressure of the measurement (hPa),sample flow rate (lpm),inlet stack bypass flow (lpm),air temperature of the measurement (°C),ambient temperature measured by the external sensor (°C),aerosol sample conditioner tube jacket temperature (°C),OPC LED temperature (°C),internal box temperature (°C),relative humidity of the measurement (%),span deviation,mass concentration of particles derived from Lorenz-Mie calculation of OPC scattering (μg/m³),mass concentration of particles derived from Lorenz-Mie calculation of OPC scattering (μg/m³),mass concentration of particles derived from Lorenz-Mie calculation of OPC scattering (μg/m³)
DateTimeUTC,F1_M11,P_M11,Q1_M11,Q2_M11,T1_M11,T2_M11,T3_M11,T4_M11,T5_M11,U1_M11,ZSPAN_M11,X2_M11,X0_M11,X1_M11
2023-07-31 18:00:00,SystemResetWarning,0836.1,5.00,000.00,033.9,025.7,000.0,040.9,032.0,33.5,0000.1,0010.07,0023.78,0007.43
2023-07-31 18:01:00,SystemResetWarning,0836.1,5.00,000.00,033.8,025.7,000.0,040.9,031.9,33.8,0000.1,0010.11,0023.05,0007.47
2023-07-31 18:02:00,SystemResetWarning,0836.0,5.01,000.00,033.5,026.0,000.0,041.0,031.7,33.7,0000.1,0010.10,0022.63,0007.49
2023-07-31 18:03:00,SystemResetWarning,0836.0,4.99,000.00,033.3,026.4,000.0,041.0,031.8,34.8,0000.9,0010.12,0022.95,0007.48
2023-07-31 18:04:00,SystemResetWarning,0835.9,5.00,000.00,033.3,026.9,000.0,041.0,031.9,35.2,0000.9,0010.08,0023.17,0007.46
2023-07-31 18:05:00,SystemResetWarning,0835.9,5.01,000.00,033.4,027.2,000.0,041.0,032.1,35.3,0000.6,0010.07,0023.16,0007.42
2023-07-31 18:06:00,SystemResetWarning,0835.9,5.00,000.00,033.6,027.6,000.0,041.0,032.3,35.0,0000.9,0010.06,0023.37,0007.40
2023-07-31 18:07:00,SystemResetWarning,0835.9,4.99,000.00,033.7,027.8,000.0,041.0,032.4,34.2,0001.0,0010.07,0022.99,0007.41
2023-07-31 18:08:00,SystemResetWarning,0835.9,4.99,000.00,033.9,027.4,000.0,040.9,032.4,34.3,0000.7,0010.04,0023.68,0007.39
2023-07-31 18:09:00,SystemResetWarning,0835.9,5.01,000.00,033.9,026.1,000.0,040.8,032.1,33.7,0000.0,0010.14,0023.56,0007.39
2023-07-31 18:10:00,SystemResetWarning,0835.9,5.00,000.00,033.9,025.6,000.0,040.8,032.0,33.8,0000.0,0010.20,0022.39,0007.38
2023-07-31 18:11:00,SystemResetWarning,0835.9,5.00,000.00,033.7,025.8,000.0,040.8,031.8,34.2,0000.0,0010.20,0021.98,0007.37
2023-07-31 18:12:00,SystemResetWarning,0835.8,5.00,000.00,033.5,026.1,000.0,040.9,031.8,35.1,0000.0,0010.19,0022.67,0007.36
2023-07-31 18:13:00,SystemResetWarning,0835.8,5.01,000.00,033.5,026.6,000.0,040.9,031.9,34.0,0000.0,0010.21,0022.73,0007.34
2023-07-31 18:14:00,SystemResetWarning,0835.8,4.99,000.00,033.5,027.0,000.0,041.0,032.0,34.1,0000.4,0010.10,0022.04,0007.32
2023-07-31 18:15:00,SystemResetWarning,0835.8,5.01,000.00,033.5,027.4,000.0,041.0,032.1,34.8,0000.0,0010.02,0022.00,0007.32
2023-07-31 18:16:00,SystemResetWarning,0835.8,5.00,000.00,033.4,027.7,000.0,041.0,032.1,34.1,0000.0,0010.01,0021.74,0007.35
2023-07-31 18:17:00,SystemResetWarning,0835.8,4.99,000.00,033.5,027.3,000.0,040.9,032.2,34.1,0000.0,0010.02,0021.21,0007.38
2023-07-31 18:18:00,SystemResetWarning,0835.8,4.99,000.00,033.5,026.1,000.0,040.8,032.0,34.8,0000.0,0010.07,0021.48,0007.39
2023-07-31 18:19:00,SystemResetWarning,0835.7,5.02,000.00,033.5,025.7,000.0,040.7,032.0,35.3,0000.0,0010.09,0022.02,0007.40
2023-07-31 18:20:00,SystemResetWarning,0835.6,5.00,000.00,033.5,025.8,000.0,040.7,031.9,35.2,0000.0,0010.03,0021.84,0007.41
2023-07-31 18:21:00,SystemResetWarning,0835.6,4.99,000.00,033.5,026.2,000.0,040.7,031.9,35.4,0000.8,0010.03,0021.51,0007.42
2023-07-31 18:22:00,SystemResetWarning,0835.6,5.02,000.00,033.8,026.6,000.0,040.8,032.1,35.0,0000.1,0010.01,0021.70,0007.43
2023-07-31 18:23:00,SystemResetWarning,0835.6,4.98,000.00,034.0,027.0,000.0,040.8,032.3,34.7,0000.0,0010.01,0021.88,0007.43
2023-07-31 18:24:00,SystemResetWarning,0835.6,5.03,000.00,034.1,027.4,000.0,040.9,032.3,35.1,-000.7,0009.95,0021.72,0007.46
2023-07-31 18:25:00,SystemResetWarning,0835.7,4.98,000.00,034.3,027.7,000.0,041.0,032.5,34.0,-001.4,0009.93,0021.50,0007.46
2023-07-31 18:26:00,SystemResetWarning,0835.7,5.00,000.00,034.4,027.5,000.0,041.0,032.5,34.1,-001.7,0009.96,0021.22,0007.46
2023-07-31 18:27:00,SystemResetWarning,0835.6,5.00,000.00,034.5,026.3,000.0,041.0,032.3,33.5,-001.3,0009.96,0020.85,0007.45
2023-07-31 18:28:00,SystemResetWarning,0835.7,5.00,000.00,034.5,025.8,000.0,041.0,032.2,33.2,-001.2,0009.97,0021.18,0007.45
2023-07-31 18:29:00,SystemResetWarning,0835.6,5.01,000.00,034.3,025.9,000.0,041.0,032.0,34.1,-000.7,0009.92,0022.37,0007.43
2023-07-31 18:30:00,SystemResetWarning,0835.7,5.01,000.00,034.1,026.2,000.0,041.2,031.9,34.4,-001.0,0009.87,0022.60,0007.43
2023-07-31 18:31:00,SystemResetWarning,0835.7,4.99,000.00,034.0,026.7,000.0,041.2,032.0,34.4,-001.2,0009.85,0022.73,0007.43
2023-07-31 18:32:00,SystemResetWarning,0835.7,5.00,000.00,033.9,027.1,000.0,041.3,032.1,34.5,-000.4,0009.76,0022.80,0007.43
2023-07-31 18:33:00,SystemResetWarning,0835.6,4.99,000.00,033.8,027.5,000.0,041.3,032.2,35.3,-000.2,0009.69,0022.93,0007.42
2023-07-31 18:34:00,SystemResetWarning,0835.6,5.01,000.00,033.9,027.7,000.0,041.3,032.3,35.5,-000.3,0009.68,0022.51,0007.43
2023-07-31 18:35:00,SystemResetWarning,0835.7,4.97,000.00,034.2,026.9,000.0,041.2,032.4,34.9,-000.4,0009.71,0023.64,0007.43
2023-07-31 18:36:00,SystemResetWarning,0835.7,5.03,000.00,034.4,025.8,000.0,041.1,032.3,34.0,-000.5,0009.74,0024.55,0007.45
2023-07-31 18:37:00,SystemResetWarning,0835.6,4.99,000.00,034.4,025.7,000.0,041.0,032.2,34.1,-000.2,0009.75,0025.33,0007.48
2023-07-31 18:38:00,SystemResetWarning,0835.6,4.99,000.00,034.3,026.0,000.0,041.1,032.0,34.5,-000.2,0009.69,0025.57,0007.50
2023-07-31 18:39:00,SystemResetWarning,0835.6,5.00,000.00,034.1,026.4,000.0,041.2,032.0,34.9,-000.3,0009.63,0025.86,0007.51
2023-07-31 18:40:00,SystemResetWarning,0835.6,5.02,000.00,034.1,026.8,000.0,041.3,032.1,34.6,-001.1,0009.71,0026.00,0007.50
2023-07-31 18:41:00,SystemResetWarning,0835.6,4.96,000.00,034.0,027.2,000.0,041.3,032.2,35.2,-000.8,0009.77,0025.26,0007.50
2023-07-31 18:42:00,SystemResetWarning,0835.6,5.03,000.00,034.1,027.6,000.0,041.4,032.3,35.4,-000.5,0009.74,0025.53,0007.48
2023-07-31 18:43:00,SystemResetWarning,0835.6,4.99,000.00,034.2,027.8,000.0,041.4,032.5,35.2,-001.3,0009.81,0025.39,0007.48
2023-07-31 18:44:00,SystemResetWarning,0835.6,5.01,000.00,034.6,027.0,000.0,041.3,032.6,33.0,-001.8,0009.87,0025.74,0007.47
2023-07-31 18:45:00,SystemResetWarning,0835.5,4.99,000.00,034.7,026.0,000.0,041.2,032.4,32.8,-001.7,0009.88,0026.56,0007.48
2023-07-31 18:46:00,SystemResetWarning,0835.5,4.99,000.00,034.7,025.8,000.0,041.2,032.3,33.4,-001.4,0009.91,0026.17,0007.50
2023-07-31 18:47:00,SystemResetWarning,0835.6,5.01,000.00,034.5,026.1,000.0,041.3,032.1,33.3,-001.5,0009.99,0025.67,0007.52
2023-07-31 18:48:00,SystemResetWarning,0835.5,5.01,000.00,034.4,026.5,000.0,041.4,032.1,33.1,-001.7,0009.99,0024.78,0007.53
2023-07-31 18:49:00,SystemResetWarning,0835.6,4.99,000.00,034.3,026.9,000.0,041.5,032.2,33.6,-002.2,0010.08,0025.21,0007.56
2023-07-31 18:50:00,SystemResetWarning,0835.6,5.00,000.00,034.2,027.3,000.0,041.5,032.2,33.6,-002.5,0010.17,0024.74,0007.58
2023-07-31 18:51:00,SystemResetWarning,0835.6,5.00,000.00,034.1,027.6,000.0,041.5,032.3,33.8,-002.3,0010.16,0024.05,0007.60
2023-07-31 18:52:00,SystemResetWarning,0835.6,4.99,000.00,034.1,026.9,000.0,041.4,032.3,33.3,-002.2,0010.19,0023.90,0007.64
2023-07-31 18:53:00,SystemResetWarning,0835.5,5.00,000.00,034.0,025.8,000.0,041.3,032.0,34.0,-002.3,0010.28,0023.51,0007.68
2023-07-31 18:54:00,SystemResetWarning,0835.5,5.02,000.00,033.9,025.7,000.0,041.2,032.0,33.9,-002.1,0010.31,0024.58,0007.69
2023-07-31 18:55:00,SystemResetWarning,0835.5,4.99,000.00,033.7,025.9,000.0,041.2,031.8,34.6,-002.0,0010.36,0024.62,0007.73
2023-07-31 18:56:00,SystemResetWarning,0835.5,4.98,000.00,033.5,026.4,000.0,041.2,031.9,35.1,-001.9,0010.40,0023.86,0007.73
2023-07-31 18:57:00,SystemResetWarning,0835.5,5.04,000.00,033.5,026.8,000.0,041.2,032.0,35.1,-002.2,0010.42,0023.43,0007.75
2023-07-31 18:58:00,SystemResetWarning,0835.5,4.97,000.00,033.6,027.2,000.0,041.2,032.1,34.6,-001.1,0010.36,0023.45,0007.73
2023-07-31 18:59:00,SystemResetWarning,0835.5,5.01,000.00,033.6,027.5,000.0,041.2,032.2,34.3,-001.1,0010.40,0023.98,0007.74
